Regional Weather Roundup
Issued by NWS Sioux Falls, SD

Home | Current Version | Previous Version | Text Only | Print | Product List | Glossary Off
Versions: 1 2 3 4 5 6 7 8 9 10 11 12 13 14 15 16 17 18 19 20 21 22 23 24 25 26 27 28 29 30 31 32 33 34 35 36 37 38 39 40 41 42 43 44 45 46 47 48 49 50

000
ASUS43 KFSD 201410
RWRFSD

WEATHER ROUNDUP FOR SE SOUTH DAKOTA/SW MINNESOTA/NW IOWA
NATIONAL WEATHER SERVICE SIOUX FALLS SD
900 AM CDT FRI OCT 20 2017

NOTE: "FAIR" INDICATES FEW OR NO CLOUDS BELOW 12,000 FEET WITH NO
SIGNIFICANT WEATHER AND OR OBSTRUCTIONS TO VISIBILITY.


SDZ038>040-050-052>070-201500-
SOUTHEAST SOUTH DAKOTA

CITY           SKY/WX    TMP DP  RH WIND       PRES   REMARKS
BROOKINGS      SUNNY     54  47  77 S20       29.76F
CHAMBERLAIN    CLEAR     60  49  67 S9G16     29.65S
HURON          SUNNY     55  48  77 S17       29.68S
MADISON        FAIR      54  50  87 S16G22    29.77F
MITCHELL       SUNNY     58  48  69 S16       29.71F
SIOUX FALLS    MOSUNNY   58  51  78 S21G29    29.80F
WINNER         FAIR      58  47  66 S24G33    29.63F
YANKTON        MOSUNNY   61  50  67 S21       29.77F
$$

MNZ071-072-080-081-089-090-097-098-201500-
SOUTHWEST MINNESOTA

CITY           SKY/WX    TMP DP  RH WIND       PRES   REMARKS
FAIRMONT       MOSUNNY   57  51  80 S16       29.92S
JACKSON        MOSUNNY   55  48  76 S14       29.90S
LUVERNE        MOSUNNY   54  46  76 S13       29.84F
MARSHALL       SUNNY     60  49  66 S24G36    29.77F
MONTEVIDEO     SUNNY     57  48  72 SW9       29.77F
PIPESTONE      CLOUDY    54  46  76 S15       29.81F
REDWOOD FALLS  SUNNY     60  48  64 S15       29.82S
TRACY          SUNNY     60  51  73 S17G23    29.82S
WORTHINGTON    SUNNY     58  50  75 S13G21    29.87S
$$

IAZ001>003-012>014-020>022-031-032-NEZ013-014-SDZ071-201500-
NORTHWEST IOWA

CITY           SKY/WX    TMP DP  RH WIND       PRES   REMARKS
CHEROKEE       PTSUNNY   58  53  83 S16       29.90F
DENISON        CLOUDY    59  52  77 S13G20    29.96S
ESTHERVILLE    CLOUDY    52  51  97 S15       29.91F
LE MARS        MOSUNNY   59  52  77 S15G22    29.86F
ORANGE CITY    MOSUNNY   57  54  88 S15G23    29.86F
SHELDON        CLOUDY    57  50  77 S9G16     29.86S
SIOUX CITY     MOSUNNY   56  52  86 S10       29.88S
SPENCER        SUNNY     56  50  80 S14       29.90F
STORM LAKE     MOSUNNY   57  52  82 S17       29.93S
$$

ABBREVIATIONS USED IN REMARKS
   TC - TEMPERATURE IN CELSIUS
  WCI - WIND CHILL INDEX
   HX - HEAT INDEX
  VSB - VISIBILITY




USA.gov is the U.S. government's official web portal to all federal, state and local government web resources and services.